Shelton, WA

5:50 AM PDT on September 26, 2016 (GMT -0700)
Sanderson

Weather History for KSHN - September, 2012

Change the Weather History Date:

Tuesday, September 11, 2012

  Actual Average Record
Temperature  
Mean Temperature 52 °F -  
Max Temperature 70 °F 73 °F 93 °F (2013)
Min Temperature 36 °F 49 °F 36 °F (2012)
Degree Days  
Heating Degree Days 12    
Growing Degree Days 2 (Base 50)    
Moisture  
Dew Point 39 °F    
Average Humidity 66    
Maximum Humidity 97    
Minimum Humidity 33    
Precipitation  
Precipitation 0.00 in - - ()
Sea Level Pressure  
Sea Level Pressure 30.27 in    
Wind  
Wind Speed 2 mph (NNE)    
Max Wind Speed 8 mph    
Max Gust Speed -    
Visibility 10 miles    
Events      
Averages and records for this station are not official NWS values.
T = Trace of Precipitation, MM = Missing Value Source: NWS Daily Summary

Daily Weather History Graph

Daily Weather History Graph

Search for Another Location

Airport or City:

Trip Planner

Search our weather history database for the weather conditions in past years. The results will help you decide how hot, cold, wet, or windy it might be!

Date:

Astronomy

Sep. 11, 2012 Rise Set
Actual Time 6:45 AM PDT 7:31 PM PDT
Civil Twilight 6:14 AM PDT 8:02 PM PDT
Nautical Twilight 5:37 AM PDT 8:39 PM PDT
Astronomical Twilight 4:58 AM PDT 9:17 PM PDT
Moon 1:53 AM PDT (9/11) 4:58 PM PDT (9/11)
Length of Visible Light 13h 47m
Length of Day
12h 45m
Waning Crescent, 20% of the Moon is Illuminated
Sep 11
Waning Crescent
Sep 15
New
Sep 22
First Quarter
Sep 29
Full
Oct 8
Last Quarter

Hourly Weather History & Observations

Time (PDT) Temp. Dew Point Humidity Pressure Visibility Wind Dir Wind Speed Gust Speed Precip Events Conditions
12:53 AM 45.0 °F 41.0 °F 86% 30.22 in 10.0 mi Calm Calm - N/A   Clear
1:53 AM 41.0 °F 39.0 °F 93% 30.23 in 10.0 mi Calm Calm - N/A   Mostly Cloudy
2:53 AM 41.0 °F 39.0 °F 93% 30.25 in 10.0 mi Calm Calm - N/A   Mostly Cloudy
3:53 AM 39.9 °F 37.9 °F 93% 30.25 in 10.0 mi Calm Calm - N/A   Partly Cloudy
4:53 AM 39.0 °F 37.0 °F 93% 30.27 in 10.0 mi Calm Calm - N/A   Clear
5:53 AM 36.0 °F 35.1 °F 97% 30.27 in 10.0 mi Calm Calm - N/A   Clear
6:53 AM 36.0 °F 34.0 °F 93% 30.29 in 10.0 mi Calm Calm - N/A   Clear
7:53 AM 42.1 °F 41.0 °F 96% 30.31 in 10.0 mi Calm Calm - N/A   Mostly Cloudy
8:53 AM 53.1 °F 45.0 °F 74% 30.30 in 10.0 mi Calm Calm - N/A   Clear
9:53 AM 57.0 °F 44.1 °F 62% 30.31 in 10.0 mi North 4.6 mph - N/A   Clear
10:53 AM 60.1 °F 42.1 °F 51% 30.30 in 10.0 mi North 6.9 mph - N/A   Clear
11:53 AM 63.0 °F 41.0 °F 45% 30.29 in 10.0 mi NW 5.8 mph - N/A   Clear
12:53 PM 64.9 °F 39.0 °F 39% 30.28 in 10.0 mi Variable 4.6 mph - N/A   Clear
1:53 PM 66.0 °F 37.9 °F 36% 30.28 in 10.0 mi Variable 5.8 mph - N/A   Clear
2:53 PM 68.0 °F 39.0 °F 35% 30.26 in 10.0 mi East 6.9 mph - N/A   Clear
3:53 PM 68.0 °F 39.2 °F 35% 30.24 in 10.0 mi Calm Calm - N/A   Clear
4:53 PM 69.1 °F 39.0 °F 33% 30.24 in 10.0 mi NNW 8.1 mph - N/A   Clear
5:53 PM 66.9 °F 41.0 °F 39% 30.25 in 10.0 mi North 6.9 mph - N/A   Clear
6:53 PM 64.0 °F 37.9 °F 38% 30.25 in 10.0 mi East 5.8 mph - N/A   Clear
7:53 PM 57.9 °F 39.0 °F 49% 30.26 in 10.0 mi NNE 4.6 mph - N/A   Clear
8:53 PM 55.0 °F 39.0 °F 55% 30.28 in 10.0 mi Calm Calm - N/A   Clear
9:53 PM 46.9 °F 39.0 °F 74% 30.29 in 10.0 mi Calm Calm - N/A   Clear
10:53 PM 45.0 °F 39.9 °F 82% 30.29 in 10.0 mi Calm Calm - N/A   Clear
11:53 PM 42.1 °F 37.0 °F 82% 30.29 in 10.0 mi Calm Calm - N/A   Clear